User: anonymous   Login
Location: Summit Observatory
(39.5293°N, 75.7290°W)
Time: 20:11:33
(UTC-05:00)
Language:

Gurwin Techsat 1B - Orbit

View from above orbital plane
View from above orbital plane
View from above satellite
View from above satellite

Ground track
Ground track

The orbit data is extracted from the following two-line orbital elements,

1 25397U 98043D   17321.41164502 -.00000007  00000-0  15939-4 0  9996
2 25397  98.6259 260.6187 0000245 321.1081  39.0080 14.23633755  5592
Epoch (UTC): 17 November 2017 09:52:46
Eccentricity: 0.0000245
inclination: 98.6259°
perigee height: 813 km
apogee height: 813 km
right ascension of ascending node: 260.6187°
argument of perigee: 321.1081°
revolutions per day: 14.23633755
mean anomaly at epoch: 39.0080°
orbit number at epoch: 559

The dashed part of the orbit path shows where the satellite is in the earth's shadow,  

DLR